Back to catalog

HULIANWANG DIGUI-18

AliveCommunicationsLEO
NORAD 62978·PAYLOAD·🇨🇳 China

Launched Feb 11, 2025 from Wenchang Space Launch Site

Loading…

Next Passes (next 24 hours)

TLE

FreshSource: Space-Track

Epoch: Sep 14, 2026, 13:33 UTC

1 62978U 25030H   26257.56527417 -.00000096  00000-0  61051-4 0  9994
2 62978  50.0059 274.9940 0000521  27.4590 332.6309 13.29325665 77757

Track HULIANWANG DIGUI-18 in real time with AllMySat

Download on the App Store